This demonstration page uses our WeatherBlox Daily Observations layout. Learn more.

Left ArrowRight Arrow

31.31129, -92.44514

Hourly Observations for May 16, 2022

Temp ( °F °C ) Dew Point ( °F °C ) Humidity (%) Winds ( mph kmh ) Pressure ( in mb ) Visibility ( mi km ) Precip ( " mm )
12:53 am 00:53 Mostly Clear 79 26.1 70 21.1 74 74 WSW 5 7 29.91 1013 10 16 0.00 0.00
1:53 am 01:53 Mostly Clear 77 25 70 21.1 79 79 Calm 29.93 1014 10 16 0.00 0.00
2:53 am 02:53 Clear 77 25 70 21.1 79 79 W 9 15 29.93 1013 10 16 0.00 0.00
3:53 am 03:53 Mostly Cloudy 77 25 70 21.1 79 79 WSW 5 7 29.92 1013 10 16 0.00 0.00
4:53 am 04:53 Clear 77 25 70 21.1 79 79 W 8 13 29.91 1013 10 16 0.00 0.00
5:53 am 05:53 Clear 76 24.4 70 21.1 82 82 Calm 29.91 1013 10 16 0.00 0.00
6:53 am 06:53 Sunny 74 23.3 71 21.7 91 91 S 5 7 29.89 1012 8 13 0.00 0.00
7:53 am 07:53 Sunny 78 25.6 71 21.7 79 79 SSW 3 6 29.89 1012 10 16 0.00 0.00
8:53 am 08:53 Sunny 81 27.2 71 21.7 72 72 W 8 13 29.91 1013 10 16 0.00 0.00
9:53 am 09:53 Sunny 85 29.4 71 21.7 63 63 WNW 8 13 29.93 1014 10 16 0.00 0.00
10:53 am 10:53 Sunny 86 30 71 21.7 61 61 W 8 13 29.94 1014 10 16 0.00 0.00
11:53 am 11:53 Sunny 91 32.8 70 21.1 50 50 WSW 9 15 29.94 1014 10 16 0.00 0.00
12:53 pm 12:53 Sunny 91 32.8 68 20 47 47 WNW 8 13 29.93 1013 10 16 0.00 0.00
1:53 pm 13:53 Sunny 94 34.4 66 18.9 40 40 W 7 11 29.91 1013 10 16 0.00 0.00
2:53 pm 14:53 Sunny 95 35 68 20 41 41 W 7 11 29.90 1012 10 16 0.00 0.00
3:53 pm 15:53 Sunny 94 34.4 66 18.9 40 40 WNW 9 15 29.88 1012 10 16 0.00 0.00
4:53 pm 16:53 Sunny 94 34.4 67 19.4 41 41 NW 9 15 29.87 1011 10 16 0.00 0.00
5:53 pm 17:53 Sunny 92 33.3 70 21.1 49 49 N 10 17 29.86 1011 10 16 0.00 0.00
6:53 pm 18:53 Sunny 90 32.2 66 18.9 45 45 N 7 11 29.88 1012 10 16 0.00 0.00
7:53 pm 19:53 Sunny 85 29.4 68 20 57 57 NNE 3 6 29.89 1012 10 16 0.00 0.00
8:53 pm 20:53 Clear 81 27.2 68 20 65 65 NE 3 6 29.91 1013 10 16 0.00 0.00
9:53 pm 21:53 Clear 81 27.2 69 20.6 67 67 NE 6 9 29.93 1013 10 16 0.00 0.00
10:53 pm 22:53 Clear 79 26.1 69 20.6 72 72 ENE 3 6 29.94 1014 10 16 0.00 0.00
11:53 pm 23:53 Clear 77 25 69 20.6 77 77 Calm 29.93 1014 10 16 0.00 0.00

Powered by AerisWeather